GFSGBSN_con_lsi_129.txt.gz
Lid_Strength_Index
4 4 4 5 5 5 5 5 6 6 6 6 6 6 6 6 6 6 5 5 5 5 5 5 5 5 6 8 8 3 1 1 1 3 4 4 5 7 8 7 6 7 6 6 5 5 5
5 5 4 5 5 5 5 6 6 6 5 5 6 6 6 6 6 5 5 5 5 5 5 5 5 5 7 11 4 4 2 3 3 1 2 2 5 5 6 6 7 6 6 6 6 6 5
4 4 5 5 5 5 6 6 6 6 6 5 5 6 6 6 6 5 5 5 5 5 5 5 4 6 8 8 5 4 4 4 4 4 3 2 2 5 5 6 5 6 8 7 6 6 6
5 5 5 5 6 6 6 6 6 6 6 6 6 6 6 6 6 6 5 5 5 5 5 4 4 6 10 5 3 5 4 5 4 3 3 2 2 4 5 4 6 8 7 10 7 6 6
5 5 5 5 6 6 6 6 6 6 6 6 6 5 6 6 5 5 5 5 5 4 4 4 5 6 9 3 5 4 4 6 5 5 5 3 3 5 5 8 8 8 11 10 9 6 6
5 5 5 6 6 6 6 6 6 6 6 6 5 5 5 5 5 5 5 5 3 4 4 3 3 8 6 7 5 4 3 4 5 5 7 6 5 7 7 8 12 11 10 9 9 7 6
5 6 6 6 6 6 6 6 6 6 6 6 6 5 5 5 5 5 5 4 7 7 5 8 8 9 8 6 5 6 5 5 5 6 9 7 8 10 9 8 8 8 8 8 7 6 6
6 6 6 6 6 6 6 6 6 6 5 6 5 5 5 4 4 4 4 6 6 6 10 7 7 7 6 5 8 7 5 6 7 9 7 8 10 8 7 7 7 8 8 9 7 6 6
6 6 6 7 6 6 7 6 5 5 5 5 5 5 5 4 4 4 5 6 3 4 9 9 7 7 5 3 6 6 4 6 7 9 8 9 8 7 7 8 8 8 9 9 9 7 6
6 7 7 7 6 6 7 6 5 5 5 5 5 5 5 5 5 4 5 4 2 3 10 7 6 4 4 3 6 3 2 4 6 8 8 8 6 7 7 8 7 10 7 8 8 9 11
6 7 7 7 7 6 6 6 5 5 4 4 5 5 5 5 4 6 5 2 1 2 17 7 6 1 3 5 5 5 2 4 8 9 8 8 8 8 9 8 7 9 6 7 8 9 9
7 7 7 6 7 6 6 5 5 4 4 5 5 4 4 4 4 5 2 1 0 13 18 8 5 7 6 6 5 4 5 3 4 8 8 8 5 7 7 6 7 6 7 8 8 9 13
7 7 7 6 6 5 5 5 5 4 5 5 5 5 5 4 7 2 0 2 12 16 7 9 9 7 8 10 8 8 8 9 11 14 15 11 10 7 7 9 7 8 10 17 18 16 15
7 7 7 6 6 5 5 5 5 4 5 5 5 5 3 5 3 0 1 7 16 10 10 8 8 8 12 9 9 8 9 10 7 8 11 14 14 10 7 8 9 9 11 16 20 18 14
7 7 6 6 6 5 5 5 5 5 5 5 5 4 4 4 1 -1 4 11 12 10 9 10 9 11 10 9 10 10 10 11 10 9 14 14 12 7 7 6 7 9 12 10 15 11 13
6 6 6 6 5 5 5 5 5 4 5 5 5 5 5 1 -1 1 7 11 9 7 7 8 14 10 13 11 11 10 11 9 10 7 7 10 15 9 8 6 7 8 7 14 14 21 19
6 6 6 6 5 5 5 5 4 5 5 5 4 6 3 1 0 3 11 9 8 6 6 9 10 13 12 12 11 10 12 9 8 8 7 9 13 13 10 12 11 10 11 10 11 14 18
6 6 6 6 5 5 5 5 4 5 5 5 5 8 2 1 5 5 8 7 7 6 5 7 8 9 12 10 11 10 11 9 6 7 10 10 13 16 14 10 8 8 12 11 16 14 12
6 6 6 6 6 5 5 5 5 5 5 6 7 6 1 2 9 8 6 7 6 6 7 7 9 8 7 10 13 10 9 6 6 8 9 10 13 17 17 13 11 14 11 11 10 11 14
6 6 6 6 6 6 5 5 5 5 5 5 7 8 6 5 6 7 8 8 8 6 8 7 8 7 9 11 9 11 9 8 6 7 6 8 12 15 19 16 13 15 13 10 11 14 13
7 6 6 6 6 6 6 5 5 5 5 5 7 8 7 10 8 7 7 7 8 9 8 8 9 9 10 13 11 10 9 8 7 6 8 10 14 11 11 11 11 12 12 11 12 12 14
6 6 6 6 6 6 6 6 5 5 5 7 8 8 7 9 8 7 7 7 9 9 9 10 10 10 10 13 12 13 11 11 12 8 9 9 13 12 13 10 12 13 11 10 10 10 11
6 6 6 6 6 6 6 6 6 5 5 8 6 6 8 9 7 8 7 8 8 9 8 8 10 11 11 9 9 9 9 9 10 11 12 12 13 15 16 12 14 17 11 11 10 9 9
6 7 6 6 6 6 6 6 6 5 5 6 5 4 9 10 8 8 8 7 7 9 11 9 8 11 8 6 7 6 7 8 9 10 11 13 13 14 17 16 21 11 8 8 9 8 9
6 7 6 6 6 6 6 6 6 5 5 5 3 5 9 11 8 8 8 8 7 8 9 10 9 7 6 8 11 12 12 12 11 9 10 11 12 16 18 18 14 11 9 9 10 11 9
6 7 6 6 6 6 6 6 6 6 5 4 4 2 6 10 8 7 8 7 9 11 11 9 7 5 6 10 12 15 16 15 16 13 9 10 11 14 16 19 21 12 8 7 8 16 8
6 7 6 6 6 6 6 6 6 6 5 4 3 1 5 9 5 5 7 9 8 10 12 11 9 10 7 11 14 15 14 11 17 16 15 14 15 16 16 17 16 11 9 7 16 14 8
6 6 6 6 6 6 6 6 6 5 5 3 3 1 3 7 5 4 4 7 7 8 12 10 12 11 12 13 13 13 14 12 14 13 14 15 16 16 15 18 19 8 9 12 9 7 7
6 6 6 6 6 6 6 6 6 6 4 3 4 1 1 5 5 2 3 3 4 5 8 10 11 13 13 14 13 14 14 12 14 17 10 15 13 15 14 15 10 8 8 7 6 6 6

GFSGBSN_con_lsi_132.txt.gz
Lid_Strength_Index
4 4 4 5 5 5 5 5 5 6 5 5 6 5 6 6 5 5 5 5 5 5 5 5 5 5 6 9 8 4 0 1 2 4 5 6 7 7 9 7 6 8 7 6 5 5 6
4 4 5 5 6 6 6 6 6 5 5 5 5 6 6 6 5 5 5 5 5 5 5 5 5 5 7 12 5 4 4 3 2 3 4 5 6 5 6 7 8 6 6 6 6 5 5
5 5 5 5 6 6 6 6 6 6 5 5 5 5 6 6 6 5 5 5 5 5 5 4 4 5 8 9 4 4 4 4 3 4 4 2 3 4 5 7 6 6 8 7 7 6 6
5 5 5 6 6 6 6 6 6 6 6 5 5 5 5 5 5 5 5 5 5 5 4 4 4 6 10 5 4 5 4 5 4 4 4 4 2 3 5 4 6 7 7 10 7 7 6
5 5 5 6 6 6 6 6 6 6 6 5 5 5 4 5 4 4 4 4 4 4 3 3 5 6 10 3 5 4 4 6 5 5 5 4 4 5 5 8 9 8 11 11 9 6 6
5 5 6 6 6 6 6 6 6 6 5 5 5 5 4 4 4 4 4 4 3 3 3 3 4 8 6 7 5 5 4 4 5 6 6 7 8 9 7 9 13 12 11 10 10 7 6
6 6 6 6 6 6 6 6 6 5 5 5 4 5 4 4 4 4 4 4 7 6 6 9 8 7 7 6 5 6 5 5 5 6 9 7 10 12 10 8 8 8 9 9 8 7 7
6 6 6 6 6 6 6 5 5 5 5 4 4 4 4 4 4 4 4 7 7 6 10 6 6 6 5 5 8 6 4 8 8 10 8 9 11 9 7 7 8 9 9 9 8 6 7
6 6 6 6 6 5 5 5 5 5 5 4 4 4 4 4 4 4 5 7 4 3 8 6 4 4 3 3 5 4 3 6 8 9 8 10 8 8 9 9 9 9 9 9 9 7 7
6 6 6 6 5 5 6 5 5 5 4 4 4 4 4 4 5 5 7 3 2 1 10 7 6 5 3 4 6 3 2 4 6 8 8 9 7 8 8 10 8 11 8 8 9 9 12
6 6 6 5 5 5 5 5 5 4 4 4 4 4 4 4 5 7 5 1 1 2 17 7 6 2 3 5 5 5 2 4 8 8 7 9 9 9 10 9 7 9 7 8 8 9 10
6 6 6 6 5 5 5 5 5 4 4 4 4 4 4 4 4 4 1 -0 1 12 17 9 6 7 7 6 6 5 5 4 5 9 9 10 6 7 8 7 7 7 8 8 8 10 14
6 6 6 6 5 5 5 5 4 4 4 4 4 5 5 3 6 1 -1 2 10 15 7 10 9 8 8 9 8 9 8 9 12 14 14 10 9 7 7 9 7 8 11 16 16 15 15
6 6 6 6 5 5 5 5 4 4 4 4 5 5 2 3 1 -0 1 6 14 10 10 7 8 8 11 8 8 8 10 12 10 11 14 16 16 10 7 9 10 10 11 17 19 18 15
6 6 6 6 5 5 5 5 4 4 5 5 5 3 3 2 0 0 4 11 11 10 8 9 9 10 10 9 9 9 12 13 11 10 15 15 14 9 8 7 7 10 12 9 14 12 15
6 6 6 6 5 5 5 5 4 4 4 5 5 4 4 1 -0 2 7 11 9 6 7 7 12 10 13 11 11 10 11 8 9 7 7 10 15 10 9 9 8 8 7 13 14 22 21
6 6 6 6 5 6 5 5 4 4 5 5 5 7 3 1 1 4 10 9 7 6 6 8 9 11 11 12 11 11 11 8 8 8 7 9 12 12 10 11 12 10 11 10 11 14 20
6 6 6 6 6 6 5 5 4 4 5 5 5 9 2 1 6 6 8 7 7 7 5 7 8 9 11 10 11 11 11 9 6 7 10 9 13 16 14 10 9 10 12 10 15 17 16
6 6 6 6 6 6 5 5 4 5 5 6 7 7 3 3 9 8 6 7 6 6 7 8 9 8 8 10 14 11 9 6 6 8 10 9 12 17 17 14 11 13 11 11 11 12 16
6 5 6 6 6 6 5 5 5 4 5 5 7 10 6 5 5 7 8 8 8 6 8 8 8 8 10 12 9 11 10 8 7 7 6 7 12 15 18 16 14 14 12 11 11 16 15
6 6 6 6 6 6 6 5 5 5 5 5 8 9 8 10 8 7 7 7 8 9 7 7 9 9 11 13 12 11 9 9 8 7 8 9 15 12 12 11 12 13 12 11 12 11 15
6 6 6 6 6 6 6 6 5 5 5 6 9 11 8 9 8 7 7 8 9 9 9 10 11 10 10 12 12 13 11 11 12 9 10 9 14 12 13 11 11 13 12 11 10 10 10
6 6 6 6 6 6 6 6 5 5 4 6 6 8 9 9 8 8 7 8 8 8 8 8 10 11 11 10 8 8 7 8 9 11 11 11 12 15 16 11 13 16 12 12 10 9 12
6 6 6 6 6 6 6 6 6 5 5 6 5 7 9 12 10 8 8 7 8 8 10 8 9 10 8 6 6 6 7 8 8 9 10 13 13 14 16 15 21 12 8 8 9 10 10
7 6 6 6 6 6 6 6 5 5 5 6 5 6 9 12 9 8 7 8 7 7 9 9 8 6 5 8 12 12 13 12 11 10 11 12 13 16 18 18 15 12 9 9 10 13 9
6 6 6 6 6 6 6 5 5 5 5 6 6 3 6 11 10 7 8 7 9 10 10 9 7 6 7 10 12 16 17 14 16 13 10 12 12 15 16 19 21 15 10 7 7 16 9
6 6 7 6 6 6 5 5 5 5 5 5 6 2 6 9 7 5 7 8 8 9 11 9 9 10 9 12 14 15 15 11 16 16 15 15 15 16 16 17 16 11 9 7 14 15 9
6 7 7 7 6 6 6 6 5 5 5 5 6 3 5 7 6 4 4 6 6 8 11 9 12 11 12 14 14 14 14 13 14 13 15 15 16 16 16 18 19 8 9 13 10 8 8
7 7 7 7 6 6 6 5 5 5 5 5 6 3 2 6 5 2 2 2 4 5 8 8 11 13 13 14 13 14 14 13 14 17 12 15 14 14 14 15 10 8 8 7 7 7 8

GFSGBSN_con_lsi_135.txt.gz
Lid_Strength_Index
4 4 5 5 5 6 6 6 5 6 6 5 5 5 6 5 5 5 5 5 5 5 5 5 5 5 7 11 10 5 0 1 3 4 6 8 10 10 12 12 10 10 10 9 8 8 8
5 5 5 5 6 6 6 6 6 5 5 5 6 6 6 6 5 5 5 5 5 5 5 5 4 4 8 14 7 6 6 6 3 5 7 7 8 8 10 10 11 9 9 8 8 8 7
4 5 5 6 6 6 6 6 6 6 5 5 5 5 5 5 5 5 5 5 5 5 4 5 4 5 9 11 5 6 7 7 3 3 5 5 5 7 8 9 7 7 10 9 9 8 8
5 5 5 6 6 6 6 6 5 5 5 5 5 5 5 5 5 5 5 4 4 4 4 4 4 7 11 6 5 6 6 7 6 5 4 5 4 6 7 6 7 9 10 13 10 9 8
5 5 5 6 6 6 6 6 6 6 6 5 5 5 5 5 4 4 4 4 3 2 2 3 5 8 10 3 5 5 5 7 6 6 6 4 7 9 8 9 11 10 13 13 12 9 8
5 5 5 5 6 5 6 6 6 6 6 5 5 5 5 4 4 3 4 3 3 2 3 3 4 8 7 7 5 5 5 6 6 7 8 9 10 12 11 11 16 13 13 12 12 9 8
5 5 5 5 5 6 6 6 5 5 5 5 5 5 5 4 3 4 4 7 10 10 8 9 8 7 6 5 4 5 4 6 6 8 11 10 12 14 13 10 9 10 10 12 10 8 9
5 5 5 5 5 6 5 5 5 5 5 5 4 4 4 3 3 3 5 8 9 8 9 5 4 4 4 4 6 4 2 7 8 11 9 11 12 11 10 10 11 10 11 11 10 8 9
5 6 5 5 5 5 5 5 5 5 5 5 4 4 3 3 3 5 7 7 5 3 9 6 4 4 4 3 5 5 3 5 8 10 10 12 11 8 9 10 11 12 11 11 11 9 8
5 6 5 5 5 5 5 5 5 5 4 4 4 4 3 4 6 6 8 4 4 2 12 8 6 5 4 4 6 3 3 5 7 11 9 9 8 8 10 10 10 13 10 9 10 11 14
6 6 6 5 5 5 5 5 5 4 4 4 4 4 4 4 7 7 6 3 2 4 19 8 7 3 4 6 6 6 3 5 9 9 10 12 9 10 11 10 8 11 9 10 10 11 12
6 6 6 5 5 5 5 5 5 5 4 4 4 4 4 5 5 4 3 2 3 13 18 9 7 7 8 6 6 6 5 4 5 9 9 10 7 8 8 8 8 8 10 10 10 12 16
6 6 6 5 5 5 5 5 5 5 4 4 4 4 5 4 7 3 2 5 13 17 8 10 10 8 8 9 8 7 9 11 13 15 15 11 11 8 7 10 8 10 12 19 20 18 18
6 6 5 5 5 5 5 5 5 5 4 4 4 4 4 4 4 3 3 9 17 11 10 8 8 8 10 9 9 9 10 13 10 12 15 17 17 11 8 9 12 12 12 18 23 20 17
5 6 5 5 5 5 5 6 5 5 5 5 5 5 5 5 3 3 6 14 13 11 8 9 9 11 11 9 10 10 11 12 11 10 15 16 15 8 8 8 10 13 14 10 15 14 18
6 6 5 5 5 5 5 5 5 5 5 5 7 6 6 5 3 5 9 12 10 7 7 8 13 11 14 12 12 12 12 9 10 8 8 11 16 10 10 8 9 11 9 15 16 22 23
6 6 5 5 5 5 5 5 5 5 5 5 6 7 6 4 4 7 13 11 8 6 6 9 11 12 12 13 12 12 12 9 8 9 8 10 14 13 10 12 14 13 14 12 14 16 21
6 6 6 6 5 5 5 6 5 5 5 6 7 10 5 5 9 9 11 8 6 7 6 7 8 9 11 11 13 12 12 10 7 8 12 10 13 16 14 9 9 11 13 14 18 18 16
6 6 6 5 5 5 5 6 6 5 5 7 9 8 5 6 14 12 9 8 7 7 7 8 10 9 9 12 14 12 11 8 7 9 11 10 14 18 16 14 11 14 12 12 13 13 17
6 6 5 6 5 5 5 6 5 5 5 6 8 12 9 9 9 11 11 10 9 6 7 8 9 8 10 12 10 12 12 9 7 8 7 8 13 15 18 16 13 15 13 12 13 17 16
6 6 6 5 5 5 5 6 6 6 5 6 8 11 10 14 12 11 9 9 10 10 8 8 10 10 11 14 13 12 11 10 9 7 8 10 15 13 13 12 12 12 13 13 14 13 16
6 6 6 6 5 5 6 6 6 6 5 6 10 11 10 11 10 11 10 10 10 10 11 11 12 11 10 12 12 13 12 11 12 10 11 9 15 13 14 12 12 14 12 12 12 13 13
6 7 6 6 6 6 6 6 7 5 5 7 7 7 10 11 12 12 11 10 10 9 9 9 10 11 12 10 9 8 8 8 9 11 11 12 13 15 17 13 14 17 13 12 12 11 11
7 7 7 6 6 6 6 6 6 5 5 6 7 8 10 14 12 12 11 9 9 10 11 10 10 11 9 7 8 8 9 10 9 10 10 13 14 14 17 16 21 14 9 9 11 11 11
7 7 7 6 6 6 6 7 6 5 5 6 7 8 9 13 11 11 9 9 8 8 10 11 9 8 7 10 12 14 13 12 11 10 11 12 14 17 18 18 15 13 12 12 13 14 10
7 7 7 6 6 6 6 6 5 5 4 6 6 6 8 11 12 9 10 9 11 11 11 10 8 7 9 12 13 16 18 15 16 13 10 12 13 16 17 19 21 14 10 8 9 16 9
7 7 6 6 6 6 7 6 6 5 4 6 7 6 8 10 9 8 10 10 8 9 12 11 9 10 10 14 15 15 16 12 16 16 16 15 15 17 17 18 15 11 9 8 16 16 9
7 6 6 6 6 7 6 6 5 4 4 6 7 5 7 9 8 6 6 7 8 10 13 10 11 12 13 15 15 16 16 14 14 14 16 16 16 16 16 18 19 8 9 14 11 8 8
6 7 7 7 7 6 7 6 5 4 5 5 8 5 4 7 7 4 4 4 5 7 9 9 10 11 12 15 14 15 15 14 15 17 14 16 15 16 16 16 11 8 9 7 7 9 9

GFSGBSN_con_lsi_138.txt.gz
Lid_Strength_Index
4 4 5 5 5 5 6 6 5 5 5 5 5 5 5 5 5 5 5 4 5 5 5 5 5 5 7 12 11 7 3 4 6 2 5 8 10 11 13 12 12 12 12 10 9 8 8
4 5 5 5 5 5 5 6 5 5 5 5 5 5 6 5 5 5 5 5 4 4 4 4 5 4 8 13 7 6 6 7 8 5 6 8 9 9 11 11 12 12 11 10 9 10 10
4 5 5 5 5 5 6 5 5 5 5 5 5 5 5 6 5 5 5 5 5 4 4 4 4 5 9 11 6 5 6 8 8 5 6 6 6 9 10 11 9 9 11 10 10 9 10
5 5 5 5 5 6 6 5 5 5 5 5 5 5 5 5 5 5 4 4 4 3 2 3 3 7 11 6 5 6 6 7 6 7 4 3 5 7 9 8 8 10 11 14 10 9 10
5 5 5 5 5 6 6 6 5 5 5 5 5 5 5 4 4 4 4 4 3 1 1 2 6 8 10 3 4 4 5 6 6 7 7 5 7 8 10 12 13 11 14 13 12 10 10
5 5 5 5 5 6 6 6 5 5 5 5 5 5 5 4 4 3 4 3 3 3 2 3 3 8 6 6 4 3 3 4 6 7 8 9 11 13 13 13 16 14 14 13 13 12 10
5 5 5 5 5 6 6 6 5 5 5 5 5 5 5 4 4 4 5 8 9 11 9 10 7 6 6 4 3 4 2 3 5 7 11 10 13 15 13 12 11 11 12 12 11 10 11
5 5 5 5 5 6 5 5 5 5 5 5 5 4 4 4 3 3 7 10 9 8 11 6 5 5 4 5 6 4 2 6 7 11 10 11 13 11 10 10 12 12 13 13 11 9 10
5 5 5 5 5 5 5 5 5 5 5 5 5 4 4 4 3 6 8 8 6 6 11 7 4 5 5 4 6 6 4 6 8 10 10 12 11 9 10 11 12 13 14 14 14 10 9
5 5 5 5 5 5 5 5 5 5 5 5 5 4 4 4 7 8 8 6 5 5 13 9 7 5 5 5 7 3 3 5 7 10 9 11 9 10 11 11 10 13 10 12 12 12 15
5 5 5 5 5 5 5 5 5 4 4 5 4 4 4 4 8 9 6 6 5 6 19 8 7 3 4 7 6 5 3 5 9 10 10 11 10 10 11 11 9 11 8 10 11 12 14
5 5 5 5 5 5 5 5 5 5 5 5 4 4 4 6 7 7 5 5 6 14 18 10 7 8 8 7 6 5 6 5 6 9 9 10 7 9 9 8 8 7 10 11 12 13 17
5 5 5 5 5 5 5 5 5 5 5 5 5 4 5 4 8 6 6 7 14 18 9 11 10 8 9 10 8 8 9 10 13 15 15 12 11 8 7 10 9 10 14 20 20 19 19
5 5 5 5 5 5 5 5 5 5 5 5 5 5 5 4 5 6 7 11 16 11 11 8 9 9 11 10 10 9 10 12 10 12 14 17 16 11 9 10 12 12 14 18 22 20 17
5 5 5 5 5 5 5 5 5 5 5 5 5 7 7 5 6 7 10 17 14 11 9 10 9 11 12 11 10 11 11 12 11 10 15 16 15 9 8 8 9 13 15 11 16 15 18
5 5 5 5 5 5 5 5 5 5 5 5 8 9 7 4 6 8 12 13 11 7 7 8 13 11 14 12 12 12 12 10 10 8 8 12 17 10 9 8 9 11 10 16 16 22 22
5 5 5 5 5 5 5 5 5 5 5 6 10 10 6 6 7 10 15 14 9 6 6 9 11 12 12 13 12 13 12 9 8 9 9 11 14 13 10 12 14 13 14 14 14 16 21
4 5 5 5 6 5 5 5 6 6 6 7 10 13 6 7 13 14 14 10 7 7 6 8 9 10 12 12 13 12 13 11 8 8 12 10 13 17 14 10 8 10 13 14 18 19 17
4 5 5 6 6 6 6 6 6 6 6 8 11 11 6 8 16 16 12 10 9 8 9 10 10 9 9 12 14 12 11 8 7 9 11 10 14 18 18 13 11 13 12 12 13 15 18
4 5 6 6 6 6 6 6 6 6 6 8 11 14 11 12 12 15 15 12 11 8 10 10 10 9 10 12 10 13 12 9 7 8 7 8 13 15 18 17 13 15 13 12 14 18 17
4 5 6 6 6 6 7 7 6 6 6 9 12 14 12 17 13 14 12 12 12 13 10 10 11 11 12 14 13 13 10 10 8 7 8 10 15 13 13 12 12 13 13 13 14 14 16
4 6 6 6 7 7 7 7 6 6 6 11 13 12 11 12 12 13 13 13 12 11 12 13 13 12 12 14 13 13 11 11 12 9 11 10 15 14 15 13 12 14 12 12 13 13 12
5 6 6 7 7 7 7 7 6 6 7 11 11 9 10 12 13 13 14 12 11 11 10 10 11 13 13 11 10 9 10 10 11 11 12 13 14 15 18 14 15 17 14 13 12 11 12
5 6 6 7 7 7 7 7 7 7 6 9 10 8 11 15 13 13 12 10 11 11 12 11 10 12 10 8 9 10 10 10 10 11 10 13 14 15 17 16 21 14 10 10 11 11 10
5 5 6 7 6 6 7 7 7 6 6 8 9 8 10 14 12 12 11 11 10 10 12 12 10 9 8 11 13 15 13 12 11 10 11 11 14 17 18 18 15 14 12 12 13 14 10
5 5 6 6 7 7 7 7 7 7 5 7 9 8 9 12 14 10 11 10 11 11 11 11 9 8 9 13 14 17 17 15 16 13 10 12 13 16 17 19 21 14 10 8 9 16 9
6 6 6 7 7 7 7 7 7 6 5 6 8 8 8 12 10 9 11 11 9 9 13 12 10 11 10 14 16 18 17 13 16 16 16 15 15 17 17 17 15 11 9 8 16 16 9
6 7 7 8 8 7 7 7 7 6 4 6 9 8 8 10 9 8 8 9 9 11 14 11 12 12 13 16 15 16 16 15 15 14 16 16 17 16 16 17 19 9 9 14 11 8 8
7 7 8 8 8 7 7 7 7 5 4 5 9 8 6 9 9 6 5 5 6 8 11 10 11 11 11 15 14 15 16 15 15 18 14 17 16 18 16 17 13 9 9 8 8 9 10